Wind_Speed
21 24 27 28 31 34 38 45 52 56 61 69 72 67 64 56 51 49 51 57 66 73 79 82 83 84 86 88 90 87 82 81 78 77 77 78 73 70 64 61 59 56 55 50 51
23 27 29 33 34 38 41 48 55 59 65 72 75 64 59 51 43 39 42 47 54 61 67 75 80 83 87 88 90 92 86 82 82 81 82 84 81 74 69 64 60 59 56 56 51
26 29 32 35 39 42 44 51 57 63 69 77 77 67 60 51 42 35 31 33 40 46 52 62 73 83 85 89 92 92 90 85 83 85 86 87 84 80 73 68 64 65 62 59 57
29 31 36 40 43 47 49 53 60 64 70 79 79 70 64 58 49 37 31 27 31 34 40 49 58 67 80 90 86 92 93 91 86 88 89 91 87 85 79 73 70 68 64 61 58
31 34 39 42 46 48 52 54 61 66 71 79 81 78 71 65 54 40 31 23 22 22 28 40 48 56 65 81 87 89 92 93 90 90 93 93 90 87 83 77 74 70 65 65 61
33 37 41 44 47 51 53 56 62 68 72 78 84 82 78 69 56 42 36 26 20 15 20 29 37 49 58 69 83 86 91 93 94 91 93 96 91 88 84 82 78 73 67 68 63
36 39 40 43 47 51 53 58 63 69 74 78 84 85 82 72 62 49 40 31 21 15 13 17 27 36 49 62 72 83 90 93 94 95 94 97 94 88 89 84 82 76 70 69 65
37 39 41 44 46 51 53 59 63 68 74 78 84 87 88 79 72 56 44 35 25 15 10 12 21 29 39 54 67 76 96 93 96 97 97 98 96 94 91 86 83 80 73 68 65
37 40 43 45 47 50 54 57 63 66 72 76 81 85 89 83 81 69 51 40 31 19 10 9 15 23 33 44 59 73 87 94 97 95 100 96 98 96 93 88 84 79 77 68 65
36 40 43 44 48 50 52 56 60 63 68 74 78 82 86 89 84 78 63 50 37 27 15 9 10 16 24 36 53 66 79 91 96 102 96 97 96 96 95 92 87 80 80 71 63
34 36 41 45 47 48 50 53 56 58 64 69 75 79 82 86 87 83 74 59 47 35 23 13 8 11 17 27 43 60 70 85 95 99 97 98 101 95 94 92 89 80 80 76 63
36 37 40 42 44 46 47 49 52 55 59 65 70 75 79 82 84 83 79 71 55 43 33 23 14 8 13 21 33 48 60 73 92 96 101 100 104 99 94 90 89 88 76 75 76
38 37 39 40 42 43 45 45 47 52 54 60 64 70 74 78 80 81 80 76 66 53 39 29 20 11 8 18 27 36 48 61 79 92 97 106 106 101 97 91 85 86 87 80 75
39 40 41 40 39 40 41 43 43 46 50 54 59 64 69 73 77 79 80 79 74 64 52 36 24 14 7 11 22 30 39 51 65 82 93 99 104 100 100 94 88 82 81 83 82
38 39 39 39 39 39 39 40 41 43 46 49 53 57 62 67 72 74 78 77 76 73 65 51 34 21 12 5 14 25 31 42 55 72 86 92 99 103 102 98 92 87 82 79 85
41 40 39 40 38 37 38 37 38 39 41 45 47 51 55 61 65 68 70 73 73 73 71 65 49 33 19 10 4 14 23 34 46 60 78 88 92 97 100 99 96 92 88 83 83
36 38 41 41 37 37 37 38 37 36 37 40 41 46 49 53 57 62 64 66 70 70 71 70 63 48 31 19 7 5 15 24 35 48 66 84 90 93 97 100 99 94 92 90 85
41 37 38 38 38 36 34 34 36 35 33 35 37 39 44 46 50 54 58 60 63 66 67 67 66 61 48 32 19 6 9 17 28 36 51 73 87 91 93 96 97 97 94 93 92
44 42 37 37 37 37 35 32 31 34 33 32 33 34 37 42 43 48 52 55 57 59 61 63 66 64 62 52 33 18 6 9 19 29 43 58 76 89 90 90 93 96 95 93 94
48 43 42 38 38 37 38 37 33 31 32 31 30 31 31 35 40 41 45 48 51 52 54 56 59 60 62 61 53 37 19 7 7 19 32 47 64 80 86 86 86 90 93 93 92
51 49 44 42 40 39 40 42 38 33 30 30 30 30 29 29 33 37 38 41 44 47 48 50 51 53 54 57 55 53 42 23 9 6 14 30 48 69 81 82 82 84 86 88 90
53 52 53 49 45 40 40 40 39 39 34 29 28 30 30 28 28 30 33 34 38 40 43 44 45 47 49 50 51 53 50 46 30 12 3 11 27 49 69 81 84 82 81 83 84
57 54 56 57 53 50 47 44 44 37 36 34 30 29 30 28 27 25 26 29 32 34 37 38 40 41 42 43 44 45 48 48 43 35 17 5 10 27 49 69 78 81 80 82 83
70 64 61 60 59 55 54 50 48 45 38 36 35 31 30 30 28 27 24 22 25 28 30 32 34 34 35 37 38 38 38 40 41 41 33 26 7 9 24 46 66 75 77 78 80
66 64 71 68 65 60 56 55 58 53 47 43 39 36 34 32 30 27 25 24 20 23 24 26 27 29 28 29 31 31 32 32 31 32 33 33 28 21 6 18 40 59 72 76 75
71 70 70 66 66 66 60 58 62 61 53 51 43 38 40 36 34 31 29 26 24 21 22 22 23 23 24 22 24 25 26 26 26 26 24 24 25 24 21 16 10 20 42 59 69
77 76 78 70 67 64 62 61 63 63 56 54 52 44 41 42 38 35 34 31 29 27 23 22 22 20 20 21 19 18 19 19 20 20 19 19 19 17 15 13 11 8 5 9 16
Wind_Direction
324 326 331 329 327 327 329 332 334 331 333 337 334 326 318 312 302 291 278 267 261 257 253 249 247 243 240 235 236 233 229 222 219 218 216 220 223 223 218 215 216 221 221 222 227
326 329 331 333 331 329 330 336 336 336 338 339 340 335 329 325 316 302 287 274 265 257 251 246 244 242 239 236 235 233 228 223 218 217 218 219 221 221 220 217 217 220 225 224 221
326 329 333 336 333 331 334 337 340 342 344 345 345 344 342 340 333 322 306 288 268 257 250 242 238 236 235 235 234 232 225 223 218 215 217 219 219 220 221 220 218 219 222 225 224
327 330 333 334 334 335 336 340 345 344 349 350 351 352 350 351 347 338 323 304 280 263 249 243 237 232 229 229 229 228 225 222 219 215 216 219 218 218 220 221 221 221 224 228 229
325 329 331 333 335 336 339 341 346 348 354 355 358 360 359 357 354 350 344 330 306 275 249 241 236 229 225 224 222 224 222 220 217 215 215 218 218 218 219 220 223 223 224 229 228
324 327 329 333 336 337 340 343 347 350 355 359 2 6 4 1 358 359 353 343 325 290 253 237 235 229 223 220 220 217 220 219 216 215 214 217 217 217 218 220 222 223 224 229 231
321 324 329 332 336 337 341 343 347 350 355 1 3 8 9 5 5 5 3 357 344 319 272 242 230 227 223 220 218 214 217 218 215 214 215 216 216 216 217 219 221 222 224 229 233
317 322 328 331 333 337 341 343 346 350 354 0 4 8 11 11 10 10 9 7 360 345 314 260 235 224 219 215 214 213 213 216 216 213 213 214 215 216 217 217 219 222 223 227 231
315 320 325 329 332 337 339 343 346 349 353 358 2 7 10 15 13 11 13 14 10 353 337 279 241 229 219 213 211 211 212 213 216 215 213 213 215 216 218 218 218 220 223 224 228
312 317 322 327 329 334 338 341 345 348 352 355 0 3 10 14 16 16 15 15 13 15 350 324 262 237 223 215 210 210 210 209 212 214 213 213 214 216 217 218 218 217 220 222 224
308 314 319 323 326 331 335 339 342 347 350 354 358 1 7 14 16 18 19 19 15 15 8 354 315 258 231 213 212 211 210 207 210 212 213 213 214 215 217 217 216 216 219 220 220
304 308 313 318 323 327 332 338 340 345 350 354 356 0 4 11 16 17 20 21 20 16 14 7 352 289 243 222 210 213 211 209 208 209 210 214 215 214 216 217 216 217 215 219 220
300 305 310 315 320 326 332 337 339 343 349 352 355 359 3 7 14 19 21 22 23 22 19 16 8 346 261 224 218 211 210 212 208 209 208 211 215 215 217 217 217 217 219 217 218
300 303 305 310 318 323 329 333 335 340 346 350 354 357 2 4 9 16 20 22 23 27 26 23 21 10 320 233 218 216 210 212 208 207 210 211 214 217 217 217 217 218 218 219 221
301 304 306 308 313 317 324 328 332 335 341 347 352 356 0 3 6 12 15 20 24 25 29 26 27 25 10 295 220 215 214 209 209 206 207 210 213 215 217 217 218 218 218 218 220
300 299 302 306 308 315 318 323 328 330 335 342 349 354 358 1 3 8 13 17 21 27 28 29 28 30 29 14 262 215 211 211 210 207 206 208 210 214 215 217 218 219 219 218 222
300 301 302 302 304 308 314 317 322 325 329 336 343 350 355 359 1 4 9 15 18 23 29 31 30 30 31 28 13 207 204 205 211 208 206 207 208 213 214 215 217 217 219 219 221
293 296 301 299 300 302 306 311 316 321 322 328 336 345 348 355 358 360 5 11 16 21 24 31 33 33 31 32 35 26 182 195 201 208 208 208 207 211 213 216 217 218 218 221 222
291 292 297 295 298 298 300 301 310 316 317 318 326 334 343 347 354 357 1 5 11 16 22 25 30 35 34 35 36 45 48 181 189 203 206 208 209 212 213 215 216 218 219 222 224
288 292 293 298 291 294 296 297 298 304 311 312 315 322 333 340 344 353 357 0 5 11 16 23 26 31 35 38 37 41 44 77 177 197 207 210 209 212 214 215 216 218 220 222 224
286 284 285 294 293 288 289 294 293 292 297 305 306 310 317 329 336 341 350 354 360 4 10 16 22 27 33 37 42 43 40 44 63 173 207 212 213 212 213 217 219 220 222 224 225
277 280 282 285 289 290 289 289 287 288 287 291 298 299 304 313 323 333 340 348 351 358 3 9 15 20 26 32 36 42 47 46 45 57 145 203 215 217 215 215 218 221 224 225 227
272 275 277 281 282 283 284 286 284 280 279 279 283 290 291 297 305 315 325 337 342 349 356 0 7 12 19 25 30 35 39 45 49 44 49 107 199 212 218 219 220 221 224 225 227
271 272 277 281 280 276 278 279 283 279 276 274 273 277 281 283 291 298 305 318 328 336 345 351 357 4 11 18 23 27 35 38 41 50 55 50 77 188 210 216 223 225 227 228 229
271 270 271 277 278 274 274 276 278 275 275 274 271 268 270 273 275 282 287 295 307 316 327 338 346 353 359 7 13 21 21 26 36 39 44 54 67 70 106 211 219 225 231 233 234
270 275 274 276 276 271 277 273 269 270 269 271 267 267 264 263 266 270 274 278 282 293 304 315 327 337 346 355 1 5 12 16 16 22 30 41 46 51 68 98 130 214 229 234 240
270 271 275 273 275 271 270 274 271 268 263 264 270 261 263 260 259 260 266 267 270 273 277 288 301 315 324 331 340 346 354 358 3 6 7 10 17 28 38 42 48 63 122 183 219
Height
10754 10751 10748 10745 10741 10737 10731 10722 10712 10701 10688 10670 10649 10625 10605 10586 10571 10560 10554 10551 10548 10549 10554 10564 10574 10588 10602 10618 10632 10646 10663 10683 10700 10712 10724 10726 10734 10742 10756 10762 10768 10773 10777 10783 10788
10750 10746 10743 10740 10735 10729 10723 10714 10703 10692 10677 10657 10634 10609 10587 10568 10554 10542 10533 10526 10524 10525 10530 10539 10549 10560 10576 10593 10611 10624 10648 10664 10680 10694 10704 10709 10720 10731 10743 10754 10761 10764 10768 10774 10780
10746 10742 10738 10735 10729 10722 10716 10707 10694 10681 10666 10644 10620 10594 10571 10553 10538 10526 10516 10508 10504 10503 10507 10514 10521 10535 10552 10567 10587 10606 10631 10647 10661 10676 10688 10694 10708 10720 10731 10744 10751 10753 10757 10763 10772
10742 10738 10734 10729 10723 10715 10708 10699 10686 10673 10657 10635 10610 10584 10560 10540 10526 10513 10503 10494 10489 10487 10490 10493 10502 10513 10527 10545 10566 10585 10608 10626 10643 10659 10671 10677 10693 10707 10720 10730 10739 10744 10752 10760 10766
10738 10734 10729 10724 10717 10709 10701 10690 10679 10665 10650 10630 10604 10576 10554 10534 10520 10507 10496 10486 10480 10477 10477 10480 10486 10495 10509 10524 10544 10563 10586 10605 10625 10640 10654 10663 10680 10693 10710 10720 10728 10737 10748 10749 10758
10733 10729 10724 10718 10711 10703 10694 10684 10672 10658 10644 10626 10601 10576 10552 10533 10516 10502 10491 10480 10474 10470 10468 10471 10474 10482 10493 10506 10523 10548 10564 10585 10606 10624 10638 10649 10666 10683 10697 10708 10717 10729 10740 10742 10750
10728 10724 10719 10713 10706 10697 10689 10678 10665 10652 10637 10621 10600 10576 10554 10534 10514 10500 10489 10478 10471 10466 10465 10466 10468 10474 10481 10492 10508 10532 10550 10567 10591 10609 10623 10637 10655 10675 10680 10696 10707 10719 10730 10735 10743
10723 10718 10713 10707 10700 10692 10684 10673 10661 10648 10633 10618 10600 10577 10557 10535 10516 10502 10489 10478 10471 10466 10463 10463 10464 10467 10474 10483 10497 10515 10530 10548 10569 10590 10609 10624 10644 10655 10668 10684 10697 10709 10720 10729 10738
10718 10712 10707 10701 10694 10688 10679 10669 10657 10644 10630 10617 10600 10584 10565 10540 10520 10504 10491 10483 10476 10469 10463 10462 10462 10464 10468 10476 10487 10500 10516 10537 10557 10577 10593 10614 10627 10643 10657 10673 10687 10702 10712 10723 10731
10713 10708 10702 10696 10689 10683 10676 10666 10656 10644 10631 10617 10604 10590 10570 10548 10528 10511 10495 10485 10478 10471 10466 10462 10462 10462 10465 10471 10479 10491 10504 10524 10543 10560 10582 10603 10616 10631 10643 10660 10675 10689 10701 10717 10722
10707 10703 10697 10692 10685 10679 10672 10664 10654 10646 10632 10619 10606 10592 10576 10558 10537 10521 10505 10491 10481 10474 10468 10464 10462 10461 10463 10467 10473 10482 10494 10510 10528 10550 10570 10590 10598 10616 10630 10647 10663 10678 10690 10703 10712
10702 10698 10693 10687 10682 10675 10668 10661 10653 10644 10633 10621 10608 10596 10580 10566 10550 10531 10514 10500 10489 10478 10472 10466 10463 10461 10462 10465 10469 10479 10489 10502 10516 10533 10554 10572 10587 10602 10617 10635 10653 10664 10680 10692 10707
10696 10692 10688 10683 10677 10672 10664 10658 10651 10642 10634 10623 10611 10599 10586 10572 10559 10545 10527 10513 10498 10486 10476 10470 10464 10462 10462 10464 10468 10474 10485 10495 10508 10527 10543 10554 10567 10590 10606 10624 10641 10655 10668 10681 10691
10689 10686 10682 10678 10672 10666 10661 10655 10649 10642 10633 10625 10614 10603 10591 10578 10564 10551 10536 10522 10509 10496 10483 10475 10469 10465 10464 10464 10467 10472 10480 10489 10501 10514 10533 10547 10565 10580 10597 10614 10630 10644 10659 10670 10681
10682 10679 10676 10672 10667 10662 10657 10651 10645 10639 10633 10625 10616 10606 10595 10586 10573 10559 10545 10532 10519 10505 10492 10482 10474 10469 10467 10466 10466 10470 10476 10484 10491 10504 10519 10539 10553 10569 10584 10604 10620 10634 10647 10659 10666
10674 10671 10668 10666 10662 10658 10652 10647 10642 10636 10631 10624 10616 10608 10599 10590 10580 10569 10557 10545 10532 10518 10503 10491 10482 10475 10471 10469 10468 10469 10474 10480 10489 10498 10514 10527 10546 10559 10576 10595 10607 10622 10634 10647 10653
10667 10664 10661 10659 10657 10652 10648 10643 10638 10633 10628 10623 10617 10609 10602 10595 10586 10577 10566 10556 10543 10529 10515 10502 10493 10483 10478 10473 10471 10470 10473 10477 10486 10495 10505 10517 10534 10549 10565 10578 10593 10607 10621 10633 10643
10660 10658 10655 10652 10650 10646 10643 10639 10634 10629 10625 10620 10616 10610 10603 10597 10590 10582 10573 10563 10552 10541 10529 10519 10506 10495 10486 10479 10475 10474 10474 10477 10482 10492 10502 10512 10525 10538 10554 10569 10585 10598 10611 10619 10629
10651 10650 10649 10646 10642 10640 10637 10633 10629 10625 10621 10617 10613 10609 10605 10598 10593 10585 10577 10568 10560 10551 10541 10530 10518 10507 10496 10488 10482 10478 10479 10480 10483 10489 10496 10505 10519 10530 10545 10558 10575 10589 10602 10611 10620
10642 10640 10639 10638 10635 10633 10630 10628 10624 10621 10617 10614 10611 10607 10603 10599 10593 10587 10580 10572 10566 10559 10550 10542 10531 10522 10511 10502 10494 10488 10485 10485 10487 10491 10495 10503 10512 10524 10538 10552 10567 10580 10592 10602 10611
10631 10630 10629 10628 10626 10625 10623 10620 10618 10615 10612 10609 10607 10604 10600 10598 10594 10589 10583 10577 10570 10564 10557 10549 10542 10534 10526 10517 10509 10501 10494 10492 10492 10494 10498 10503 10510 10517 10531 10547 10561 10572 10582 10594 10604
10618 10618 10617 10616 10617 10616 10614 10613 10611 10609 10606 10603 10600 10600 10598 10594 10592 10589 10584 10579 10573 10567 10561 10555 10549 10542 10535 10528 10521 10513 10507 10502 10498 10498 10500 10503 10509 10517 10527 10537 10549 10563 10575 10585 10595
10604 10604 10602 10603 10605 10604 10605 10604 10603 10601 10599 10597 10594 10592 10592 10591 10588 10586 10583 10579 10575 10570 10564 10559 10553 10548 10543 10537 10531 10524 10519 10513 10509 10506 10505 10506 10509 10514 10523 10534 10545 10556 10566 10575 10583
10586 10590 10589 10588 10590 10591 10592 10592 10592 10593 10591 10590 10587 10585 10584 10584 10583 10582 10580 10578 10574 10571 10567 10562 10558 10553 10548 10543 10538 10533 10530 10525 10521 10517 10516 10514 10513 10515 10521 10530 10541 10550 10559 10566 10574
10567 10573 10573 10575 10573 10576 10578 10581 10577 10579 10582 10579 10578 10578 10575 10575 10575 10575 10574 10573 10572 10570 10567 10564 10560 10556 10552 10548 10544 10541 10536 10532 10530 10528 10525 10523 10523 10523 10524 10529 10535 10544 10552 10559 10565
10547 10548 10554 10557 10558 10559 10562 10564 10562 10562 10568 10567 10569 10569 10567 10566 10566 10567 10567 10566 10566 10565 10564 10562 10560 10557 10554 10551 10548 10544 10541 10538 10535 10533 10532 10532 10531 10530 10532 10534 10536 10540 10546 10552 10558
10530 10529 10528 10544 10542 10544 10547 10545 10545 10546 10552 10555 10554 10557 10556 10556 10555 10556 10557 10557 10558 10558 10558 10557 10556 10555 10553 10550 10549 10547 10544 10542 10540 10537 10536 10534 10534 10535 10537 10538 10539 10542 10545 10548 10550